Content
SEND FEEDBACK

Daily
Averages
Monthly
Summary
United Kingdom

LONDON, ENGLAND


Home > Europe > United Kingdom > England
Elevation: 61 meters     Latitude: 51 09N     Longitude: 000 11W

WEATHER
 
SELECT A DAY
Number of Records: 293,889;   Date Range: 7/1/96 - 8/29/14
 
SHARE

PRINT THIS DATA

[ ← Previous Day ]
WEATHER ALMANAC - 31 JANUARY, 2013
[ Next Day → ]
[ °F ]   °C
Weather ElementAverageHighLow
Temperature8.8 °C10 °C (10:20 am)7 °C (12:50 am)
Dewpoint4.3 °C7 °C (6:50 am)2 °C (3:50 pm)
Humidity73.4 %87 % (3:50 am)58 % (3:50 pm)
Barometer1013.2 hPa1017.9 hPa (12:50 am)1010.2 hPa (6:50 am)
Wind Speed23.7 km/h38.9 km/h (11:20 am)
Wind Gust55.5 km/h (1:20 pm)
Weather ElementAverage
Visibility9.8 km
Wind DirectionWSW (238.1 °)

Weather ElementTotal
Precipitation---
Heating Degree Days9.8 (Base 18.3)
Averaged from 47 records on 31 January, 2013
WEATHER CONDITIONS BREAKOUT
WIND DIRECTION BREAKOUT
WEATHER BY HOUR - 31 JANUARY, 2013
[ °F ]   °C
Local TimeTemperatureDewpointHumidityBarometerVisibilityWind DirectionWind SpeedGust SpeedPrecipitationEventsConditions
12:50 AM7 °C3 °C76 %1017.9 hPaSW (230°)13 km/hClear
1:20 AM7 °C4 °C81 %1017.3 hPaSW (230°)14.8 km/hClear
1:50 AM7 °C4 °C81 %1017.3 hPaSW (220°)14.8 km/hClear
2:20 AM7 °C4 °C81 %1017.3 hPaSW (220°)14.8 km/hClear
2:50 AM8 °C5 °C81 %1016.3 hPa10 kmSW (220°)18.5 km/hScattered Clouds
3:20 AM8 °C5 °C81 %1015.2 hPa10 kmSSW (210°)20.4 km/hMostly Cloudy
3:50 AM8 °C6 °C87 %1014.2 hPa10 kmSW (220°)22.2 km/hMostly Cloudy
4:20 AM9 °C6 °C82 %1013.2 hPa9 kmSSW (210°)24.1 km/h42.6 km/hMostly Cloudy
4:50 AM9 °C6 °C82 %1013.2 hPa10 kmSW (220°)25.9 km/hMostly Cloudy
5:20 AM9 °C6 °C82 %1012.2 hPa10 kmSW (220°)29.6 km/h48.1 km/hMostly Cloudy
5:50 AM9 °C6 °C82 %1012.2 hPa9 kmSW (220°)27.8 km/hRainLight Rain
6:20 AM9 °C6 °C82 %1011.2 hPa8 kmSW (220°)24.1 km/hRainLight Rain
6:50 AM9 °C7 °C87 %1010.2 hPa8 kmSW (220°)27.8 km/h50.1 km/hRainLight Rain
7:20 AM9 °C7 °C87 %1010.2 hPa9 kmSW (220°)29.6 km/hRainLight Rain
7:50 AM9 °C7 °C87 %1010.2 hPa10 kmSW (230°)24.1 km/hRainLight Rain
8:20 AM9 °C6 °C82 %1010.2 hPa10 kmSW (230°)22.2 km/hPartly Cloudy
8:50 AM9 °C5 °C76 %1010.2 hPa10 kmSW (230°)20.4 km/hPartly Cloudy
9:20 AM9 °C5 °C76 %1010.2 hPa10 kmSW (230°)20.4 km/hPartly Cloudy
9:50 AM9 °C5 °C76 %1011.2 hPa10 kmSW (230°)22.2 km/hScattered Clouds
10:20 AM10 °C4 °C66 %1011.2 hPa10 kmWSW (250°)29.6 km/hScattered Clouds
10:50 AM10 °C4 °C66 %1012.2 hPa10 kmWSW (250°)37 km/hMostly Cloudy
11:20 AM10 °C4 °C66 %1012.2 hPa10 kmWSW (250°)38.9 km/hMostly Cloudy
11:50 AM10 °C5 °C71 %1012.2 hPa10 kmWest (260°)35.2 km/h53.8 km/hMostly Cloudy
12:20 PM10 °C4 °C66 %1011.2 hPa10 kmWest (260°)35.2 km/hScattered Clouds
12:50 PM10 °C3 °C62 %1012.2 hPa10 kmWest (260°)38.9 km/hScattered Clouds
1:20 PM10 °C4 °C66 %1012.2 hPa10 kmWNW (290°)33.3 km/h55.5 km/hRainLight Rain
1:50 PM10 °C4 °C66 %1013.2 hPa10 kmWest (270°)27.8 km/hScattered Clouds
2:20 PM10 °C4 °C66 %1013.2 hPa10 kmWest (270°)25.9 km/hScattered Clouds
2:50 PM10 °C3 °C62 %1013.2 hPa10 kmWest (270°)27.8 km/hScattered Clouds
3:20 PM10 °C3 °C62 %1013.2 hPa10 kmWest (270°)31.5 km/hScattered Clouds
3:50 PM10 °C2 °C58 %1013.2 hPa10 kmWest (260°)27.8 km/hScattered Clouds
4:20 PM9 °C3 °C66 %1013.2 hPa10 kmWest (260°)25.9 km/hScattered Clouds
4:50 PM10 °C3 °C62 %1013.2 hPa10 kmWSW (250°)24.1 km/hScattered Clouds
5:20 PM9 °C3 °C66 %1014.2 hPa10 kmWSW (250°)22.2 km/hMostly Cloudy
5:50 PM9 °C2 °C62 %1014.2 hPa10 kmWSW (250°)22.2 km/hMostly Cloudy
6:20 PM9 °C2 °C62 %1014.2 hPa10 kmWSW (240°)22.2 km/hPartly Cloudy
6:50 PM9 °C2 °C62 %1014.2 hPa10 kmSW (230°)20.4 km/hPartly Cloudy
7:20 PM9 °C3 °C66 %1014.2 hPa10 kmSW (230°)18.5 km/hPartly Cloudy
7:50 PM8 °C3 °C71 %1014.2 hPaSW (230°)16.7 km/hClear
8:20 PM8 °C3 °C71 %1014.2 hPaWSW (240°)16.7 km/hClear
8:50 PM8 °C3 °C71 %1014.2 hPa10 kmSW (230°)14.8 km/hPartly Cloudy
9:20 PM8 °C3 °C71 %1014.2 hPa10 kmWSW (240°)14.8 km/hPartly Cloudy
9:50 PM8 °C4 °C76 %1014.2 hPa10 kmSW (220°)11.1 km/hPartly Cloudy
10:20 PM8 °C4 °C76 %1013.2 hPa10 kmSW (230°)13 km/hScattered Clouds
10:50 PM8 °C5 °C81 %1012.2 hPa9 kmSW (230°)18.5 km/hPartly Cloudy
11:20 PM8 °C5 °C81 %1012.2 hPa9 kmSW (230°)20.4 km/hPartly Cloudy
11:50 PM8 °C5 °C81 %1012.2 hPaWSW (240°)20.4 km/hClear
Hourly data recorded from EGKK, located 0 kilometers away from London, England







STORIES FROM OUR PARTNERS